TimeCDT,TemperatureF,Dew PointF,Humidity,Sea Level PressureIn,VisibilityMPH,Wind Direction,Wind SpeedMPH,Gust SpeedMPH,PrecipitationIn,Events,Conditions,WindDirDegrees,DateUTC
12:53 AM,48.0,45.0,89,29.91,8.0,Calm,Calm,-,N/A,,Clear,0,2013-04-01 05:53:00
1:53 AM,46.9,44.1,90,29.92,7.0,SSW,4.6,-,N/A,,Clear,210,2013-04-01 06:53:00
2:53 AM,48.0,45.0,89,29.92,6.0,SW,3.5,-,N/A,,Overcast,230,2013-04-01 07:53:00
3:53 AM,46.9,45.0,93,29.92,7.0,SW,3.5,-,N/A,,Partly Cloudy,230,2013-04-01 08:53:00
4:53 AM,46.0,44.1,93,29.94,5.0,West,3.5,-,N/A,,Clear,270,2013-04-01 09:53:00
5:53 AM,48.9,43.0,80,29.96,10.0,NNW,3.5,-,N/A,,Clear,340,2013-04-01 10:53:00
6:53 AM,48.0,39.0,71,30.01,10.0,NNW,3.5,-,N/A,,Mostly Cloudy,330,2013-04-01 11:53:00
7:53 AM,48.0,34.0,58,30.04,10.0,NNW,9.2,-,N/A,,Scattered Clouds,340,2013-04-01 12:53:00
8:53 AM,48.0,33.1,56,30.07,10.0,NNW,6.9,-,N/A,,Mostly Cloudy,330,2013-04-01 13:53:00
9:53 AM,50.0,32.0,50,30.09,10.0,North,8.1,-,N/A,,Partly Cloudy,360,2013-04-01 14:53:00
10:53 AM,50.0,32.0,50,30.11,10.0,NNW,8.1,-,N/A,,Overcast,330,2013-04-01 15:53:00
11:53 AM,53.1,34.0,48,30.10,10.0,North,8.1,-,N/A,,Clear,10,2013-04-01 16:53:00
12:53 PM,57.0,36.0,45,30.10,10.0,NNW,11.5,-,N/A,,Partly Cloudy,340,2013-04-01 17:53:00
1:53 PM,57.0,35.1,44,30.08,10.0,WNW,15.0,20.7,N/A,,Clear,290,2013-04-01 18:53:00
2:53 PM,57.0,34.0,42,30.09,10.0,WNW,11.5,20.7,N/A,,Clear,290,2013-04-01 19:53:00
3:53 PM,55.9,32.0,40,30.09,10.0,WNW,11.5,21.9,N/A,,Clear,290,2013-04-01 20:53:00
4:53 PM,54.0,30.9,41,30.10,10.0,NNW,11.5,-,N/A,,Scattered Clouds,330,2013-04-01 21:53:00
5:53 PM,53.1,27.0,37,30.11,10.0,NNW,9.2,-,N/A,,Partly Cloudy,330,2013-04-01 22:53:00
6:53 PM,50.0,26.1,39,30.13,10.0,WNW,9.2,-,N/A,,Partly Cloudy,300,2013-04-01 23:53:00
7:53 PM,48.0,25.0,41,30.13,10.0,NNW,5.8,-,N/A,,Clear,340,2013-04-02 00:53:00
8:53 PM,46.0,23.0,40,30.15,10.0,NNW,5.8,-,N/A,,Clear,340,2013-04-02 01:53:00
9:53 PM,44.1,21.9,42,30.17,10.0,NNW,3.5,-,N/A,,Clear,340,2013-04-02 02:53:00
10:53 PM,43.0,21.0,42,30.17,10.0,North,5.8,-,N/A,,Clear,350,2013-04-02 03:53:00
11:53 PM,41.0,21.0,45,30.18,10.0,Calm,Calm,-,N/A,,Clear,0,2013-04-02 04:53:00